sat.trackr.live / text

‹ back to catalog

STARLINK-34421

NORAD 64459 · 2025-130X

PAYLOAD ACTIVE UNKNOWN

§ Identity

Operator
Country
US
Launch date
2025-06-18
Launch site
AFETR
Launch vehicle
Mass (kg)
RCS (m²)

Purposes: comms

External: N2YO · Heavens-Above · Gunter

§ Orbital elements

Epoch: 2026-05-25T02:32:34.010016Z

Period
93.85 min
Inclination
53.1601°
Eccentricity
0.0001228
Mean motion
15.34412770 rev/d
Perigee alt
461.8 km
Apogee alt
463.5 km
Semi-major
6,840.8 km
B*
1.0523e-3
RAAN
92.8180°
Arg perigee
100.4966°
Mean anomaly
259.6175°
Rev number
5,241

§ Raw data

STARLINK-344211 64459U 25130X   26145.10594919  .00035358  00000+0  10523-2 0  99912 64459  53.1601  92.8180 0001228 100.4966 259.6175 15.34412770 52414

JSON: /api/v1/satellites/64459 · /tle

For live sub-satellite position, see the globe view (requires WebGL).

§ Visibility from observer

Set your observer location to see the next 7 days of passes ≥ 10°. The values pass through the URL so the page stays shareable.

No JS? Fill the form by hand. The geolocation button needs JavaScript.